Comanche, TX

3:53 PM CDT on March 28, 2017 (GMT -0500)
Comanche

Weather History for KMKN - October, 2012

Change the Weather History Date:

Wednesday, October 24, 2012

  Actual Average (KSEP) Record (KSEP)
Temperature  
Mean Temperature 74 °F -  
Max Temperature 82 °F 73 °F 88 °F (1931)
Min Temperature 66 °F 51 °F 29 °F (1924)
Cooling Degree Days 9    
Growing Degree Days 24 (Base 50)    
Moisture  
Dew Point 62 °F    
Average Humidity 70    
Maximum Humidity 88    
Minimum Humidity 47    
Precipitation  
Precipitation 0.00 in - - ()
Sea Level Pressure  
Sea Level Pressure 29.91 in    
Wind  
Wind Speed 10 mph (South)    
Max Wind Speed 17 mph    
Max Gust Speed 25 mph    
Visibility 10 miles    
Events      
Averages and records for this station are not official NWS values.
T = Trace of Precipitation, MM = Missing Value Source: NWS Daily Summary

Daily Weather History Graph

Daily Weather History Graph

Search for Another Location

Airport or City:

Trip Planner

Search our weather history database for the weather conditions in past years. The results will help you decide how hot, cold, wet, or windy it might be!

Date:

Astronomy

Oct. 24, 2012 Rise Set
Actual Time 7:44 AM CDT 6:51 PM CDT
Civil Twilight 7:19 AM CDT 7:16 PM CDT
Nautical Twilight 6:51 AM CDT 7:45 PM CDT
Astronomical Twilight 6:22 AM CDT 8:13 PM CDT
Moon 3:53 PM CDT (10/24) 2:58 AM CDT (10/24)
Length of Visible Light 11h 56m
Length of Day
11h 06m
Waxing Gibbous, 76% of the Moon is Illuminated
Oct 24
Waxing Gibbous
Oct 29
Full
Nov 6
Last Quarter
Nov 13
New
Nov 20
First Quarter

Hourly Weather History & Observations

Time (CDT) Temp. Heat Index Dew Point Humidity Pressure Visibility Wind Dir Wind Speed Gust Speed Precip Events Conditions
12:15 AM 68.0 °F - 64.4 °F 88% 29.95 in 10.0 mi South 5.8 mph - N/A   Clear
12:35 AM 69.8 °F - 64.4 °F 83% 29.95 in 10.0 mi South 8.1 mph - N/A   Clear
12:55 AM 69.8 °F - 64.4 °F 83% 29.94 in 10.0 mi SSE 6.9 mph - N/A   Clear
1:15 AM 68.0 °F - 64.4 °F 88% 29.95 in 10.0 mi South 5.8 mph - N/A   Clear
1:35 AM 68.0 °F - 64.4 °F 88% 29.95 in 10.0 mi South 5.8 mph - N/A   Clear
1:55 AM 69.8 °F - 64.4 °F 83% 29.95 in 10.0 mi South 6.9 mph - N/A   Clear
2:15 AM 69.8 °F - 64.4 °F 83% 29.95 in 10.0 mi South 9.2 mph - N/A   Clear
2:35 AM 69.8 °F - 64.4 °F 83% 29.95 in 10.0 mi South 8.1 mph - N/A   Clear
2:55 AM 69.8 °F - 64.4 °F 83% 29.94 in 10.0 mi South 12.7 mph 17.3 mph N/A   Clear
3:15 AM 68.0 °F - 64.4 °F 88% 29.94 in 10.0 mi South 10.4 mph 16.1 mph N/A   Clear
3:35 AM 68.0 °F - 64.4 °F 88% 29.93 in 10.0 mi South 9.2 mph - N/A   Clear
3:55 AM 68.0 °F - 64.4 °F 88% 29.92 in 10.0 mi South 10.4 mph - N/A   Clear
4:15 AM 68.0 °F - 64.4 °F 88% 29.92 in 10.0 mi South 10.4 mph 17.3 mph N/A   Clear
4:35 AM 68.0 °F - 64.4 °F 88% 29.92 in 10.0 mi South 9.2 mph 16.1 mph N/A   Clear
4:55 AM 68.0 °F - 64.4 °F 88% 29.92 in 10.0 mi South 12.7 mph 17.3 mph N/A   Clear
5:15 AM 68.0 °F - 64.4 °F 88% 29.91 in 10.0 mi South 13.8 mph 18.4 mph N/A   Clear
5:35 AM 68.0 °F - 64.4 °F 88% 29.92 in 10.0 mi South 12.7 mph 17.3 mph N/A   Scattered Clouds
6:15 AM 68.0 °F - 64.4 °F 88% 29.92 in 10.0 mi South 13.8 mph 20.7 mph N/A   Overcast
6:35 AM 68.0 °F - 64.4 °F 88% 29.92 in 10.0 mi South 12.7 mph 18.4 mph N/A   Overcast
6:55 AM 68.0 °F - 64.4 °F 88% 29.93 in 10.0 mi South 9.2 mph - N/A   Scattered Clouds
7:15 AM 66.2 °F - 62.6 °F 88% 29.94 in 10.0 mi South 11.5 mph - N/A   Scattered Clouds
7:35 AM 68.0 °F - 64.4 °F 88% 29.94 in 10.0 mi South 10.4 mph - N/A   Mostly Cloudy
8:15 AM 68.0 °F - 64.4 °F 88% 29.95 in 10.0 mi South 10.4 mph 16.1 mph N/A   Overcast
8:35 AM 69.8 °F - 64.4 °F 83% 29.95 in 10.0 mi South 10.4 mph - N/A   Overcast
8:55 AM 69.8 °F - 64.4 °F 83% 29.96 in 10.0 mi South 9.2 mph - N/A   Overcast
9:15 AM 69.8 °F - 64.4 °F 83% 29.97 in 10.0 mi South 11.5 mph 20.7 mph N/A   Overcast
9:55 AM 71.6 °F - 64.4 °F 78% 29.98 in 10.0 mi South 13.8 mph 19.6 mph N/A   Overcast
10:15 AM 71.6 °F - 64.4 °F 78% 29.98 in 10.0 mi South 9.2 mph 19.6 mph N/A   Overcast
10:55 AM 73.4 °F - 64.4 °F 73% 29.98 in 10.0 mi South 13.8 mph 19.6 mph N/A   Overcast
11:35 AM 73.4 °F - 64.4 °F 73% 29.97 in 10.0 mi South 15.0 mph - N/A   Overcast
11:55 AM 75.2 °F - 64.4 °F 69% 29.97 in 10.0 mi South 15.0 mph 23.0 mph N/A   Overcast
12:15 PM 77.0 °F - 64.4 °F 65% 29.96 in 10.0 mi South 12.7 mph 21.9 mph N/A   Overcast
12:35 PM 78.8 °F - 64.4 °F 61% 29.95 in 10.0 mi South 17.3 mph 23.0 mph N/A   Overcast
12:55 PM 78.8 °F - 64.4 °F 61% 29.94 in 10.0 mi South 17.3 mph 21.9 mph N/A   Mostly Cloudy
1:15 PM 78.8 °F - 64.4 °F 61% 29.93 in 10.0 mi South 17.3 mph 21.9 mph N/A   Scattered Clouds
1:35 PM 80.6 °F 81.8 °F 62.6 °F 54% 29.92 in 10.0 mi South 11.5 mph 20.7 mph N/A   Scattered Clouds
1:55 PM 78.8 °F - 62.6 °F 57% 29.91 in 10.0 mi South 11.5 mph 20.7 mph N/A   Scattered Clouds
2:15 PM 80.6 °F 81.5 °F 60.8 °F 51% 29.90 in 10.0 mi South 13.8 mph 23.0 mph N/A   Clear
2:35 PM 82.4 °F 82.9 °F 60.8 °F 48% 29.89 in 10.0 mi South 15.0 mph 19.6 mph N/A   Clear
2:55 PM 80.6 °F 81.5 °F 60.8 °F 51% 29.89 in 10.0 mi South 11.5 mph - N/A   Clear
3:15 PM 80.6 °F 81.5 °F 60.8 °F 51% 29.88 in 10.0 mi South 15.0 mph - N/A   Clear
3:35 PM 80.6 °F 81.1 °F 59.0 °F 48% 29.87 in 10.0 mi South 12.7 mph 19.6 mph N/A   Clear
4:15 PM 80.6 °F 81.1 °F 59.0 °F 48% 29.86 in 10.0 mi South 12.7 mph 19.6 mph N/A   Clear
4:35 PM 80.6 °F 81.5 °F 60.8 °F 51% 29.85 in 10.0 mi South 17.3 mph 23.0 mph N/A   Clear
4:55 PM 80.6 °F 81.5 °F 60.8 °F 51% 29.85 in 10.0 mi South 13.8 mph 19.6 mph N/A   Clear
5:15 PM 80.6 °F 81.5 °F 60.8 °F 51% 29.84 in 10.0 mi SSE 15.0 mph 24.2 mph N/A   Clear
5:35 PM 80.6 °F 81.1 °F 59.0 °F 48% 29.84 in 10.0 mi South 13.8 mph 25.3 mph N/A   Clear
5:55 PM 80.6 °F 81.1 °F 59.0 °F 48% 29.84 in 10.0 mi SSE 15.0 mph 23.0 mph N/A   Clear
6:15 PM 80.6 °F 81.1 °F 59.0 °F 48% 29.84 in 10.0 mi South 12.7 mph 18.4 mph N/A   Clear
6:35 PM 78.8 °F - 59.0 °F 51% 29.85 in 10.0 mi South 13.8 mph 19.6 mph N/A   Clear
6:55 PM 78.8 °F - 57.2 °F 47% 29.85 in 10.0 mi South 13.8 mph 21.9 mph N/A   Clear
7:15 PM 77.0 °F - 55.4 °F 47% 29.85 in 10.0 mi South 11.5 mph - N/A   Clear
7:35 PM 77.0 °F - 55.4 °F 47% 29.85 in 10.0 mi South 9.2 mph - N/A   Clear
8:15 PM 73.4 °F - 59.0 °F 61% 29.85 in 10.0 mi SSE 9.2 mph - N/A   Clear
8:35 PM 73.4 °F - 59.0 °F 61% 29.86 in 10.0 mi SSE 9.2 mph - N/A   Clear
8:55 PM 71.6 °F - 59.0 °F 64% 29.86 in 10.0 mi SSE 9.2 mph - N/A   Clear
9:35 PM 71.6 °F - 59.0 °F 64% 29.86 in 10.0 mi SSE 8.1 mph - N/A   Clear
9:55 PM 71.6 °F - 60.8 °F 69% 29.86 in 10.0 mi SSE 8.1 mph 16.1 mph N/A   Clear
10:15 PM 71.6 °F - 60.8 °F 69% 29.85 in 10.0 mi SSE 10.4 mph 16.1 mph N/A   Clear
10:35 PM 71.6 °F - 60.8 °F 69% 29.86 in 10.0 mi SSE 9.2 mph - N/A   Clear
10:55 PM 71.6 °F - 60.8 °F 69% 29.85 in 10.0 mi SSE 9.2 mph - N/A   Clear
11:15 PM 71.6 °F - 60.8 °F 69% 29.85 in 10.0 mi SSE 12.7 mph - N/A   Clear
11:35 PM 71.6 °F - 60.8 °F 69% 29.85 in 10.0 mi SSE 9.2 mph - N/A   Clear
11:55 PM 71.6 °F - 60.8 °F 69% 29.84 in 10.0 mi South 10.4 mph 17.3 mph N/A   Clear